STARLINK-35413, 65886

Orbit data source: Space-Track

STARLINK-35413, 65886 is a payload satellite owned by SpaceX/Seattle (US) in LEO that was launched on Tue, 07 Oct 2025 UTC via an FALCON 9 launch vehicle from the Air Force Eastern Test Range (AFETR). Payload-class satellites include a variety of spacecraft equipped with specific instruments for various scientific and technological missions. These include communications satellites like Starlink; space stations such as the ISS; scientific satellites like the Hubble; Earth observation satellites from companies like Planet Labs, Umbra, and HawkEye 360; GPS; miniature CubeSats for education and research; and military/defense satellites.

Loading next visibility...
Identifier
65886, 2025-224E
Orbit
LEO
Country
Flag of USUS
Related business
Manufacturer
SpaceX/Seattle
Mission
Operational spacecraft
Bus & Motor
STARLINK V2MO, Unknown motor
Mass
575 kg wet, ~530 kg dry
Launch date (UTC)
2025-10-07 (2 weeks ago)
Launch vehicle
FALCON 9
Launch site
Air Force Eastern Test Range (AFETR)
Object type
Payload
Rocket body
Debris
Shape & HBR
Unknown
Radar Cross Section
RCS unknown

Expand to show TLE details & history
Last TLE update: 8 hours ago

TLE from 8 hours ago
0 STARLINK-35413
1 65886U 25224E   25292.91670139 -.01499849  00000-0 -89583-2 0  9995
2 65886  53.1507 310.1621 0000600  97.3651 216.6366 15.80031508  3157
Epoch: 2025-10-19T22:00Z
TLE epoch observation values (Epoch: 2025-10-19T22:00:03.000Z)
Latitude
-35.35796°
Longitude
-80.39996°
Altitude
341.938 km
Speed
7.703 km/s
True Right ascension
18h 32m 57s
True Declination
-35° 11' 09"
Sunlit
Object was in daylight at epoch
Visualization orbit readout
Latitude
Unknown
Longitude
Unknown
Altitude
Unknown
Speed
Unknown
Apparent Right ascension
Unknown
Apparent Declination
Unknown
Sunlit
N/A
Visualization observer readout
Local Sidereal Time
00:30:25
Azimuth
Unknown
Elevation
Unknown
Doppler factor
Unknown
Orbital elements
Apogee altitude
331.017 km
Perigee altitude
330.212 km
Semi-major axis
6,708.752 km
Eccentricity
0.00006
Inclination
53.1507°
RAAN
310.1621°
Arg. of periapsis
97.3651°
True anomaly
216.6325°
Mean anomaly
216.6366°
Eccentric anomaly
216.63455°
Mean motion
3.94985 °/min
Orbital period
91.14 mins
BSTAR
-0.0089583
Loading maneuver chart data...
Computing Atmospheric mass density...
Loading historical data...
Loading historical data...
Loading historical data...
Loading historical data...
Loading historical data...
Loading historical data...
Loading historical data...

Documentation

Showing up to 5 results
|